owner,sensor,date,latitude,longitude,vertical_datum,wind_speed,wind_to_direction,wind_speed_of_gust,qcFlag 
DISL,ioos:station:DISL:MBLA:1,2017-02-01T00:00:00Z,30.4367,-88.0117,14.2,4.58,185.0,-999.0,'1111122,1111122,1111122' 
DISL,ioos:station:DISL:MBLA:1,2017-02-01T00:30:00Z,30.4367,-88.0117,14.2,4.92,183.5,-999.0,'1111122,1111122,1111122' 
DISL,ioos:station:DISL:MBLA:1,2017-02-01T01:00:00Z,30.4367,-88.0117,14.2,5.37,188.4,-999.0,'1111122,1111122,1111122' 
DISL,ioos:station:DISL:MBLA:1,2017-02-01T01:30:00Z,30.4367,-88.0117,14.2,5.5,186.7,-999.0,'1111122,1111122,1111122' 
DISL,ioos:station:DISL:MBLA:1,2017-02-01T02:00:00Z,30.4367,-88.0117,14.2,5.5,189.3,-999.0,'1111122,1111122,1111122' 
DISL,ioos:station:DISL:MBLA:1,2017-02-01T02:30:00Z,30.4367,-88.0117,14.2,5.07,193.0,-999.0,'1111122,1111122,1111122' 
DISL,ioos:station:DISL:MBLA:1,2017-02-01T03:00:00Z,30.4367,-88.0117,14.2,6.21,201.6,-999.0,'1111122,1111122,1111122' 
DISL,ioos:station:DISL:MBLA:1,2017-02-01T03:30:00Z,30.4367,-88.0117,14.2,5.94,197.2,-999.0,'1111122,1111122,1111122' 
DISL,ioos:station:DISL:MBLA:1,2017-02-01T04:00:00Z,30.4367,-88.0117,14.2,5.22,194.5,-999.0,'1111122,1111122,1111122' 
DISL,ioos:station:DISL:MBLA:1,2017-02-01T04:30:00Z,30.4367,-88.0117,14.2,4.5,191.6,-999.0,'1111122,1111122,1111122' 
DISL,ioos:station:DISL:MBLA:1,2017-02-01T05:00:00Z,30.4367,-88.0117,14.2,3.45,185.9,-999.0,'1111122,1111122,1111122' 
DISL,ioos:station:DISL:MBLA:1,2017-02-01T05:30:00Z,30.4367,-88.0117,14.2,3.22,178.7,-999.0,'1111122,1111122,1111122' 
DISL,ioos:station:DISL:MBLA:1,2017-02-01T06:00:00Z,30.4367,-88.0117,14.2,3.36,176.0,-999.0,'1111122,1111122,1111122' 
DISL,ioos:station:DISL:MBLA:1,2017-02-01T06:30:00Z,30.4367,-88.0117,14.2,0.21,133.2,-999.0,'1111122,1111122,1111122' 
DISL,ioos:station:DISL:MBLA:1,2017-02-01T07:00:00Z,30.4367,-88.0117,14.2,3.56,174.3,-999.0,'1111122,1111122,1111122' 
DISL,ioos:station:DISL:MBLA:1,2017-02-01T07:30:00Z,30.4367,-88.0117,14.2,4.08,183.8,-999.0,'1111122,1111122,1111122' 
DISL,ioos:station:DISL:MBLA:1,2017-02-01T08:00:00Z,30.4367,-88.0117,14.2,3.52,176.8,-999.0,'1111122,1111122,1111122' 
DISL,ioos:station:DISL:MBLA:1,2017-02-01T08:30:00Z,30.4367,-88.0117,14.2,1.28,144.8,-999.0,'1111122,1111122,1111122' 
DISL,ioos:station:DISL:MBLA:1,2017-02-01T09:00:00Z,30.4367,-88.0117,14.2,0.4,122.7,-999.0,'1111122,1111122,1111122' 
DISL,ioos:station:DISL:MBLA:1,2017-02-01T09:30:00Z,30.4367,-88.0117,14.2,0.61,113.2,-999.0,'1111122,1111122,1111122' 
DISL,ioos:station:DISL:MBLA:1,2017-02-01T10:00:00Z,30.4367,-88.0117,14.2,0.94,122.8,-999.0,'1111122,1111122,1111122' 
DISL,ioos:station:DISL:MBLA:1,2017-02-01T10:30:00Z,30.4367,-88.0117,14.2,0.99,129.9,-999.0,'1111122,1111122,1111122' 
DISL,ioos:station:DISL:MBLA:1,2017-02-01T11:00:00Z,30.4367,-88.0117,14.2,1.11,138.7,-999.0,'1111122,1111122,1111122' 
DISL,ioos:station:DISL:MBLA:1,2017-02-01T11:30:00Z,30.4367,-88.0117,14.2,0.16,106.9,-999.0,'1111122,1111122,1111122' 
DISL,ioos:station:DISL:MBLA:1,2017-02-01T12:00:00Z,30.4367,-88.0117,14.2,0.35,94.6,-999.0,'1111122,1111122,1111122' 
DISL,ioos:station:DISL:MBLA:1,2017-02-01T12:30:00Z,30.4367,-88.0117,14.2,1.63,96.5,-999.0,'1111122,1111122,1111122' 
DISL,ioos:station:DISL:MBLA:1,2017-02-01T13:00:00Z,30.4367,-88.0117,14.2,3.41,126.6,-999.0,'1111122,1111122,1111122' 
DISL,ioos:station:DISL:MBLA:1,2017-02-01T13:30:00Z,30.4367,-88.0117,14.2,3.38,125.0,-999.0,'1111122,1111122,1111122' 
DISL,ioos:station:DISL:MBLA:1,2017-02-01T14:00:00Z,30.4367,-88.0117,14.2,3.25,120.5,-999.0,'1111122,1111122,1111122' 
DISL,ioos:station:DISL:MBLA:1,2017-02-01T14:30:00Z,30.4367,-88.0117,14.2,2.67,122.5,-999.0,'1111122,1111122,1111122' 
DISL,ioos:station:DISL:MBLA:1,2017-02-01T15:00:00Z,30.4367,-88.0117,14.2,2.79,127.5,-999.0,'1111122,1111122,1111122' 
DISL,ioos:station:DISL:MBLA:1,2017-02-01T15:30:00Z,30.4367,-88.0117,14.2,3.93,129.3,-999.0,'1111122,1111122,1111122' 
DISL,ioos:station:DISL:MBLA:1,2017-02-01T16:00:00Z,30.4367,-88.0117,14.2,4.54,142.5,-999.0,'1111122,1111122,1111122' 
DISL,ioos:station:DISL:MBLA:1,2017-02-01T16:30:00Z,30.4367,-88.0117,14.2,4.99,136.7,-999.0,'1111122,1111122,1111122' 
DISL,ioos:station:DISL:MBLA:1,2017-02-01T17:00:00Z,30.4367,-88.0117,14.2,4.01,140.1,-999.0,'1111122,1111122,1111122' 
DISL,ioos:station:DISL:MBLA:1,2017-02-01T17:30:00Z,30.4367,-88.0117,14.2,3.51,137.4,-999.0,'1111122,1111122,1111122' 
DISL,ioos:station:DISL:MBLA:1,2017-02-01T18:00:00Z,30.4367,-88.0117,14.2,4.19,144.0,-999.0,'1111122,1111122,1111122' 
DISL,ioos:station:DISL:MBLA:1,2017-02-01T18:30:00Z,30.4367,-88.0117,14.2,4.33,141.1,-999.0,'1111122,1111122,1111122' 
DISL,ioos:station:DISL:MBLA:1,2017-02-01T19:00:00Z,30.4367,-88.0117,14.2,4.24,140.7,-999.0,'1111122,1111122,1111122' 
DISL,ioos:station:DISL:MBLA:1,2017-02-01T19:30:00Z,30.4367,-88.0117,14.2,4.56,151.4,-999.0,'1111122,1111122,1111122' 
DISL,ioos:station:DISL:MBLA:1,2017-02-01T20:00:00Z,30.4367,-88.0117,14.2,4.95,161.0,-999.0,'1111122,1111122,1111122' 
DISL,ioos:station:DISL:MBLA:1,2017-02-01T20:30:00Z,30.4367,-88.0117,14.2,5.15,168.0,-999.0,'1111122,1111122,1111122' 
DISL,ioos:station:DISL:MBLA:1,2017-02-01T21:00:00Z,30.4367,-88.0117,14.2,4.31,165.9,-999.0,'1111122,1111122,1111122' 
DISL,ioos:station:DISL:MBLA:1,2017-02-01T21:30:00Z,30.4367,-88.0117,14.2,4.1,170.9,-999.0,'1111122,1111122,1111122' 
DISL,ioos:station:DISL:MBLA:1,2017-02-01T22:00:00Z,30.4367,-88.0117,14.2,4.13,170.9,-999.0,'1111122,1111122,1111122' 
DISL,ioos:station:DISL:MBLA:1,2017-02-01T22:30:00Z,30.4367,-88.0117,14.2,3.74,147.4,-999.0,'1111122,1111122,1111122' 
DISL,ioos:station:DISL:MBLA:1,2017-02-01T23:00:00Z,30.4367,-88.0117,14.2,3.17,146.3,-999.0,'1111122,1111122,1111122' 
DISL,ioos:station:DISL:MBLA:1,2017-02-01T23:30:00Z,30.4367,-88.0117,14.2,3.35,151.5,-999.0,'1111122,1111122,1111122' 
DISL,ioos:station:DISL:MBLA:1,2017-02-02T00:00:00Z,30.4367,-88.0117,14.2,2.78,139.2,-999.0,'1111122,1111122,1111122' 
DISL,ioos:station:DISL:MBLA:1,2017-02-02T00:30:00Z,30.4367,-88.0117,14.2,2.32,129.6,-999.0,'1111122,1111122,1111122' 
DISL,ioos:station:DISL:MBLA:1,2017-02-02T01:00:00Z,30.4367,-88.0117,14.2,2.29,132.8,-999.0,'1111122,1111122,1111122' 
DISL,ioos:station:DISL:MBLA:1,2017-02-02T01:30:00Z,30.4367,-88.0117,14.2,2.08,125.9,-999.0,'1111122,1111122,1111122' 
DISL,ioos:station:DISL:MBLA:1,2017-02-02T02:00:00Z,30.4367,-88.0117,14.2,2.29,103.3,-999.0,'1111122,1111122,1111122' 
DISL,ioos:station:DISL:MBLA:1,2017-02-02T02:30:00Z,30.4367,-88.0117,14.2,2.45,115.6,-999.0,'1111122,1111122,1111122' 
DISL,ioos:station:DISL:MBLA:1,2017-02-02T03:00:00Z,30.4367,-88.0117,14.2,1.11,114.7,-999.0,'1111122,1111122,1111122' 
DISL,ioos:station:DISL:MBLA:1,2017-02-02T03:30:00Z,30.4367,-88.0117,14.2,3.5,139.7,-999.0,'1111122,1111122,1111122' 
DISL,ioos:station:DISL:MBLA:1,2017-02-02T04:00:00Z,30.4367,-88.0117,14.2,3.95,141.5,-999.0,'1111122,1111122,1111122' 
DISL,ioos:station:DISL:MBLA:1,2017-02-02T04:30:00Z,30.4367,-88.0117,14.2,3.21,138.3,-999.0,'1111122,1111122,1111122' 
DISL,ioos:station:DISL:MBLA:1,2017-02-02T05:00:00Z,30.4367,-88.0117,14.2,2.34,132.5,-999.0,'1111122,1111122,1111122' 
DISL,ioos:station:DISL:MBLA:1,2017-02-02T05:30:00Z,30.4367,-88.0117,14.2,1.87,128.9,-999.0,'1111122,1111122,1111122' 
DISL,ioos:station:DISL:MBLA:1,2017-02-02T06:00:00Z,30.4367,-88.0117,14.2,1.72,128.5,-999.0,'1111122,1111122,1111122' 
DISL,ioos:station:DISL:MBLA:1,2017-02-02T06:30:00Z,30.4367,-88.0117,14.2,0.99,111.0,-999.0,'1111122,1111122,1111122' 
DISL,ioos:station:DISL:MBLA:1,2017-02-02T07:00:00Z,30.4367,-88.0117,14.2,0.93,103.0,-999.0,'1111122,1111122,1111122' 
DISL,ioos:station:DISL:MBLA:1,2017-02-02T07:30:00Z,30.4367,-88.0117,14.2,1.03,98.7,-999.0,'1111122,1111122,1111122' 
DISL,ioos:station:DISL:MBLA:1,2017-02-02T08:00:00Z,30.4367,-88.0117,14.2,0.35,84.6,-999.0,'1111122,1111122,1111122' 
DISL,ioos:station:DISL:MBLA:1,2017-02-02T08:30:00Z,30.4367,-88.0117,14.2,0.55,78.79,-999.0,'1111122,1111122,1111122' 
DISL,ioos:station:DISL:MBLA:1,2017-02-02T09:00:00Z,30.4367,-88.0117,14.2,0.46,80.6,-999.0,'1111122,1111122,1111122' 
DISL,ioos:station:DISL:MBLA:1,2017-02-02T09:30:00Z,30.4367,-88.0117,14.2,0.28,75.77,-999.0,'1111122,1111122,1111122' 
DISL,ioos:station:DISL:MBLA:1,2017-02-02T10:00:00Z,30.4367,-88.0117,14.2,0.02,83.4,-999.0,'1111122,1111122,1111122' 
DISL,ioos:station:DISL:MBLA:1,2017-02-02T10:30:00Z,30.4367,-88.0117,14.2,0.58,84.6,-999.0,'1111122,1111122,1111122' 
DISL,ioos:station:DISL:MBLA:1,2017-02-02T11:00:00Z,30.4367,-88.0117,14.2,0.41,81.7,-999.0,'1111122,1111122,1111122' 
DISL,ioos:station:DISL:MBLA:1,2017-02-02T11:30:00Z,30.4367,-88.0117,14.2,0.52,79.23,-999.0,'1111122,1111122,1111122' 
DISL,ioos:station:DISL:MBLA:1,2017-02-02T12:00:00Z,30.4367,-88.0117,14.2,1.21,44.89,-999.0,'1111122,1111122,1111122' 
DISL,ioos:station:DISL:MBLA:1,2017-02-02T12:30:00Z,30.4367,-88.0117,14.2,0.64,65.5,-999.0,'1111122,1111122,1111122' 
DISL,ioos:station:DISL:MBLA:1,2017-02-02T13:00:00Z,30.4367,-88.0117,14.2,1.85,37.82,-999.0,'1111122,1111122,1111122' 
DISL,ioos:station:DISL:MBLA:1,2017-02-02T13:30:00Z,30.4367,-88.0117,14.2,1.85,72.06,-999.0,'1111122,1111122,1111122' 
DISL,ioos:station:DISL:MBLA:1,2017-02-02T14:00:00Z,30.4367,-88.0117,14.2,1.57,107.2,-999.0,'1111122,1111122,1111122' 
DISL,ioos:station:DISL:MBLA:1,2017-02-02T14:30:00Z,30.4367,-88.0117,14.2,1.12,151.0,-999.0,'1111122,1111122,1111122' 
DISL,ioos:station:DISL:MBLA:1,2017-02-02T15:00:00Z,30.4367,-88.0117,14.2,1.23,224.3,-999.0,'1111122,1111122,1111122' 
DISL,ioos:station:DISL:MBLA:1,2017-02-02T15:30:00Z,30.4367,-88.0117,14.2,1.06,202.2,-999.0,'1111122,1111122,1111122' 
DISL,ioos:station:DISL:MBLA:1,2017-02-02T16:00:00Z,30.4367,-88.0117,14.2,1.1,200.6,-999.0,'1111122,1111122,1111122' 
DISL,ioos:station:DISL:MBLA:1,2017-02-02T16:30:00Z,30.4367,-88.0117,14.2,0.66,205.4,-999.0,'1111122,1111122,1111122' 
DISL,ioos:station:DISL:MBLA:1,2017-02-02T17:00:00Z,30.4367,-88.0117,14.2,1.76,168.9,-999.0,'1111122,1111122,1111122' 
DISL,ioos:station:DISL:MBLA:1,2017-02-02T17:30:00Z,30.4367,-88.0117,14.2,2.77,164.4,-999.0,'1111122,1111122,1111122' 
DISL,ioos:station:DISL:MBLA:1,2017-02-02T18:00:00Z,30.4367,-88.0117,14.2,2.69,162.6,-999.0,'1111122,1111122,1111122' 
DISL,ioos:station:DISL:MBLA:1,2017-02-02T18:30:00Z,30.4367,-88.0117,14.2,2.84,160.3,-999.0,'1111122,1111122,1111122' 
DISL,ioos:station:DISL:MBLA:1,2017-02-02T19:00:00Z,30.4367,-88.0117,14.2,3.82,153.6,-999.0,'1111122,1111122,1111122' 
DISL,ioos:station:DISL:MBLA:1,2017-02-02T19:30:00Z,30.4367,-88.0117,14.2,4.28,160.0,-999.0,'1111122,1111122,1111122' 
DISL,ioos:station:DISL:MBLA:1,2017-02-02T20:00:00Z,30.4367,-88.0117,14.2,5.07,174.3,-999.0,'1111122,1111122,1111122' 
DISL,ioos:station:DISL:MBLA:1,2017-02-02T20:30:00Z,30.4367,-88.0117,14.2,6.38,188.3,-999.0,'1111122,1111122,1111122' 
DISL,ioos:station:DISL:MBLA:1,2017-02-02T21:00:00Z,30.4367,-88.0117,14.2,5.86,192.9,-999.0,'1111122,1111122,1111122' 
DISL,ioos:station:DISL:MBLA:1,2017-02-02T21:30:00Z,30.4367,-88.0117,14.2,5.63,189.0,-999.0,'1111122,1111122,1111122' 
DISL,ioos:station:DISL:MBLA:1,2017-02-02T22:00:00Z,30.4367,-88.0117,14.2,6.54,192.2,-999.0,'1111122,1111122,1111122' 
DISL,ioos:station:DISL:MBLA:1,2017-02-02T22:30:00Z,30.4367,-88.0117,14.2,5.42,184.2,-999.0,'1111122,1111122,1111122' 
DISL,ioos:station:DISL:MBLA:1,2017-02-02T23:00:00Z,30.4367,-88.0117,14.2,3.15,167.5,-999.0,'1111122,1111122,1111122' 
DISL,ioos:station:DISL:MBLA:1,2017-02-02T23:30:00Z,30.4367,-88.0117,14.2,2.9,163.6,-999.0,'1111122,1111122,1111122' 
DISL,ioos:station:DISL:MBLA:1,2017-02-03T00:00:00Z,30.4367,-88.0117,14.2,1.52,133.5,-999.0,'1111122,1111122,1111122' 
DISL,ioos:station:DISL:MBLA:1,2017-02-03T00:30:00Z,30.4367,-88.0117,14.2,1.19,136.9,-999.0,'1111122,1111122,1111122' 
DISL,ioos:station:DISL:MBLA:1,2017-02-03T01:00:00Z,30.4367,-88.0117,14.2,0.73,134.0,-999.0,'1111122,1111122,1111122' 
DISL,ioos:station:DISL:MBLA:1,2017-02-03T01:30:00Z,30.4367,-88.0117,14.2,1.04,114.5,-999.0,'1111122,1111122,1111122' 
DISL,ioos:station:DISL:MBLA:1,2017-02-03T02:00:00Z,30.4367,-88.0117,14.2,3.2,132.7,-999.0,'1111122,1111122,1111122' 
DISL,ioos:station:DISL:MBLA:1,2017-02-03T02:30:00Z,30.4367,-88.0117,14.2,3.35,153.3,-999.0,'1111122,1111122,1111122' 
DISL,ioos:station:DISL:MBLA:1,2017-02-03T03:00:00Z,30.4367,-88.0117,14.2,3.32,156.1,-999.0,'1111122,1111122,1111122' 
DISL,ioos:station:DISL:MBLA:1,2017-02-03T03:30:00Z,30.4367,-88.0117,14.2,0.93,144.7,-999.0,'1111122,1111122,1111122' 
DISL,ioos:station:DISL:MBLA:1,2017-02-03T04:00:00Z,30.4367,-88.0117,14.2,1.46,159.4,-999.0,'1111122,1111122,1111122' 
DISL,ioos:station:DISL:MBLA:1,2017-02-03T04:30:00Z,30.4367,-88.0117,14.2,0.88,150.7,-999.0,'1111122,1111122,1111122' 
DISL,ioos:station:DISL:MBLA:1,2017-02-03T05:00:00Z,30.4367,-88.0117,14.2,0.57,119.9,-999.0,'1111122,1111122,1111122' 
DISL,ioos:station:DISL:MBLA:1,2017-02-03T05:30:00Z,30.4367,-88.0117,14.2,0.45,95.2,-999.0,'1111122,1111122,1111122' 
DISL,ioos:station:DISL:MBLA:1,2017-02-03T06:00:00Z,30.4367,-88.0117,14.2,0.61,84.7,-999.0,'1111122,1111122,1111122' 
DISL,ioos:station:DISL:MBLA:1,2017-02-03T06:30:00Z,30.4367,-88.0117,14.2,0.0,0.0,-999.0,'1114422,1114422,1111122' 
DISL,ioos:station:DISL:MBLA:1,2017-02-03T07:00:00Z,30.4367,-88.0117,14.2,0.53,91.4,-999.0,'1111122,1111122,1111122' 
DISL,ioos:station:DISL:MBLA:1,2017-02-03T07:30:00Z,30.4367,-88.0117,14.2,0.55,80.4,-999.0,'1111122,1111122,1111122' 
DISL,ioos:station:DISL:MBLA:1,2017-02-03T08:00:00Z,30.4367,-88.0117,14.2,3.24,23.11,-999.0,'1111122,1111122,1111122' 
DISL,ioos:station:DISL:MBLA:1,2017-02-03T08:30:00Z,30.4367,-88.0117,14.2,3.41,22.87,-999.0,'1111122,1111122,1111122' 
DISL,ioos:station:DISL:MBLA:1,2017-02-03T09:00:00Z,30.4367,-88.0117,14.2,2.72,36.66,-999.0,'1111122,1111122,1111122' 
DISL,ioos:station:DISL:MBLA:1,2017-02-03T09:30:00Z,30.4367,-88.0117,14.2,1.17,45.45,-999.0,'1111122,1111122,1111122' 
DISL,ioos:station:DISL:MBLA:1,2017-02-03T10:00:00Z,30.4367,-88.0117,14.2,0.04,70.98,-999.0,'1111122,1111122,1111122' 
DISL,ioos:station:DISL:MBLA:1,2017-02-03T10:30:00Z,30.4367,-88.0117,14.2,0.66,53.78,-999.0,'1111122,1111122,1111122' 
DISL,ioos:station:DISL:MBLA:1,2017-02-03T11:00:00Z,30.4367,-88.0117,14.2,0.26,35.3,-999.0,'1111122,1111122,1111122' 
DISL,ioos:station:DISL:MBLA:1,2017-02-03T11:30:00Z,30.4367,-88.0117,14.2,0.0,59.5,-999.0,'1114422,1111122,1111122' 
DISL,ioos:station:DISL:MBLA:1,2017-02-03T12:00:00Z,30.4367,-88.0117,14.2,0.0,0.0,-999.0,'1114422,1114422,1111122' 
DISL,ioos:station:DISL:MBLA:1,2017-02-03T12:30:00Z,30.4367,-88.0117,14.2,3.36,27.67,-999.0,'1111122,1111122,1111122' 
DISL,ioos:station:DISL:MBLA:1,2017-02-03T13:00:00Z,30.4367,-88.0117,14.2,5.39,2.801,-999.0,'1111122,1111122,1111122' 
DISL,ioos:station:DISL:MBLA:1,2017-02-03T13:30:00Z,30.4367,-88.0117,14.2,5.42,1.638,-999.0,'1111122,1111122,1111122' 
DISL,ioos:station:DISL:MBLA:1,2017-02-03T14:00:00Z,30.4367,-88.0117,14.2,4.3,5.424,-999.0,'1111122,1111122,1111122' 
DISL,ioos:station:DISL:MBLA:1,2017-02-03T14:30:00Z,30.4367,-88.0117,14.2,4.98,350.5,-999.0,'1111122,1111122,1111122' 
DISL,ioos:station:DISL:MBLA:1,2017-02-03T15:00:00Z,30.4367,-88.0117,14.2,5.22,350.0,-999.0,'1111122,1111122,1111122' 
DISL,ioos:station:DISL:MBLA:1,2017-02-03T15:30:00Z,30.4367,-88.0117,14.2,7.64,347.8,-999.0,'1111122,1111122,1111122' 
DISL,ioos:station:DISL:MBLA:1,2017-02-03T16:00:00Z,30.4367,-88.0117,14.2,8.72,350.3,-999.0,'1111122,1111122,1111122' 
DISL,ioos:station:DISL:MBLA:1,2017-02-03T16:30:00Z,30.4367,-88.0117,14.2,8.1,349.8,-999.0,'1111122,1111122,1111122' 
DISL,ioos:station:DISL:MBLA:1,2017-02-03T17:00:00Z,30.4367,-88.0117,14.2,9.38,0.436,-999.0,'1111122,1111122,1111122' 
DISL,ioos:station:DISL:MBLA:1,2017-02-03T17:30:00Z,30.4367,-88.0117,14.2,9.61,354.2,-999.0,'1111122,1111122,1111122' 
DISL,ioos:station:DISL:MBLA:1,2017-02-03T18:00:00Z,30.4367,-88.0117,14.2,10.78,356.4,-999.0,'1111122,1111122,1111122' 
DISL,ioos:station:DISL:MBLA:1,2017-02-03T18:30:00Z,30.4367,-88.0117,14.2,9.63,359.6,-999.0,'1111122,1111122,1111122' 
DISL,ioos:station:DISL:MBLA:1,2017-02-03T19:00:00Z,30.4367,-88.0117,14.2,10.7,358.6,-999.0,'1111122,1111122,1111122' 
DISL,ioos:station:DISL:MBLA:1,2017-02-03T19:30:00Z,30.4367,-88.0117,14.2,10.95,2.135,-999.0,'1111122,1111122,1111122' 
DISL,ioos:station:DISL:MBLA:1,2017-02-03T20:00:00Z,30.4367,-88.0117,14.2,11.84,5.213,-999.0,'1111122,1111122,1111122' 
DISL,ioos:station:DISL:MBLA:1,2017-02-03T20:30:00Z,30.4367,-88.0117,14.2,9.14,8.86,-999.0,'1111122,1111122,1111122' 
DISL,ioos:station:DISL:MBLA:1,2017-02-03T21:00:00Z,30.4367,-88.0117,14.2,8.89,356.2,-999.0,'1111122,1111122,1111122' 
DISL,ioos:station:DISL:MBLA:1,2017-02-03T21:30:00Z,30.4367,-88.0117,14.2,8.77,5.83,-999.0,'1111122,1111122,1111122' 
DISL,ioos:station:DISL:MBLA:1,2017-02-03T22:00:00Z,30.4367,-88.0117,14.2,9.3,358.8,-999.0,'1111122,1111122,1111122' 
DISL,ioos:station:DISL:MBLA:1,2017-02-03T22:30:00Z,30.4367,-88.0117,14.2,8.67,16.96,-999.0,'1111122,1111122,1111122' 
DISL,ioos:station:DISL:MBLA:1,2017-02-03T23:00:00Z,30.4367,-88.0117,14.2,10.41,2.92,-999.0,'1111122,1111122,1111122' 
DISL,ioos:station:DISL:MBLA:1,2017-02-03T23:30:00Z,30.4367,-88.0117,14.2,10.33,359.0,-999.0,'1111122,1111122,1111122' 
DISL,ioos:station:DISL:MBLA:1,2017-02-04T00:00:00Z,30.4367,-88.0117,14.2,9.38,13.47,-999.0,'1111122,1111122,1111122' 
DISL,ioos:station:DISL:MBLA:1,2017-02-04T00:30:00Z,30.4367,-88.0117,14.2,8.29,17.78,-999.0,'1111122,1111122,1111122' 
DISL,ioos:station:DISL:MBLA:1,2017-02-04T01:00:00Z,30.4367,-88.0117,14.2,7.79,32.73,-999.0,'1111122,1111122,1111122' 
DISL,ioos:station:DISL:MBLA:1,2017-02-04T01:30:00Z,30.4367,-88.0117,14.2,6.96,25.88,-999.0,'1111122,1111122,1111122' 
DISL,ioos:station:DISL:MBLA:1,2017-02-04T02:00:00Z,30.4367,-88.0117,14.2,6.64,25.23,-999.0,'1111122,1111122,1111122' 
DISL,ioos:station:DISL:MBLA:1,2017-02-04T02:30:00Z,30.4367,-88.0117,14.2,8.46,17.41,-999.0,'1111122,1111122,1111122' 
DISL,ioos:station:DISL:MBLA:1,2017-02-04T03:00:00Z,30.4367,-88.0117,14.2,10.53,17.12,-999.0,'1111122,1111122,1111122' 
DISL,ioos:station:DISL:MBLA:1,2017-02-04T03:30:00Z,30.4367,-88.0117,14.2,10.91,4.777,-999.0,'1111122,1111122,1111122' 
DISL,ioos:station:DISL:MBLA:1,2017-02-04T04:00:00Z,30.4367,-88.0117,14.2,10.29,349.8,-999.0,'1111122,1111122,1111122' 
DISL,ioos:station:DISL:MBLA:1,2017-02-04T04:30:00Z,30.4367,-88.0117,14.2,9.61,353.3,-999.0,'1111122,1111122,1111122' 
DISL,ioos:station:DISL:MBLA:1,2017-02-04T05:00:00Z,30.4367,-88.0117,14.2,10.0,353.9,-999.0,'1111122,1111122,1111122' 
DISL,ioos:station:DISL:MBLA:1,2017-02-04T05:30:00Z,30.4367,-88.0117,14.2,9.32,357.2,-999.0,'1111122,1111122,1111122' 
DISL,ioos:station:DISL:MBLA:1,2017-02-04T06:00:00Z,30.4367,-88.0117,14.2,12.51,12.93,-999.0,'1111122,1111122,1111122' 
DISL,ioos:station:DISL:MBLA:1,2017-02-04T06:30:00Z,30.4367,-88.0117,14.2,12.48,10.74,-999.0,'1111122,1111122,1111122' 
DISL,ioos:station:DISL:MBLA:1,2017-02-04T07:00:00Z,30.4367,-88.0117,14.2,11.64,18.13,-999.0,'1111122,1111122,1111122' 
DISL,ioos:station:DISL:MBLA:1,2017-02-04T07:30:00Z,30.4367,-88.0117,14.2,11.8,20.9,-999.0,'1111122,1111122,1111122' 
DISL,ioos:station:DISL:MBLA:1,2017-02-04T08:00:00Z,30.4367,-88.0117,14.2,12.2,20.09,-999.0,'1111122,1111122,1111122' 
DISL,ioos:station:DISL:MBLA:1,2017-02-04T08:30:00Z,30.4367,-88.0117,14.2,12.19,25.03,-999.0,'1111122,1111122,1111122' 
DISL,ioos:station:DISL:MBLA:1,2017-02-04T09:00:00Z,30.4367,-88.0117,14.2,12.52,23.55,-999.0,'1111122,1111122,1111122' 
DISL,ioos:station:DISL:MBLA:1,2017-02-04T09:30:00Z,30.4367,-88.0117,14.2,11.42,21.16,-999.0,'1111122,1111122,1111122' 
DISL,ioos:station:DISL:MBLA:1,2017-02-04T10:00:00Z,30.4367,-88.0117,14.2,10.59,23.89,-999.0,'1111122,1111122,1111122' 
DISL,ioos:station:DISL:MBLA:1,2017-02-04T10:30:00Z,30.4367,-88.0117,14.2,10.62,28.72,-999.0,'1111122,1111122,1111122' 
DISL,ioos:station:DISL:MBLA:1,2017-02-04T11:00:00Z,30.4367,-88.0117,14.2,10.12,21.87,-999.0,'1111122,1111122,1111122' 
DISL,ioos:station:DISL:MBLA:1,2017-02-04T11:30:00Z,30.4367,-88.0117,14.2,10.39,24.61,-999.0,'1111122,1111122,1111122' 
DISL,ioos:station:DISL:MBLA:1,2017-02-04T12:00:00Z,30.4367,-88.0117,14.2,10.12,28.42,-999.0,'1111122,1111122,1111122' 
DISL,ioos:station:DISL:MBLA:1,2017-02-04T12:30:00Z,30.4367,-88.0117,14.2,10.0,31.13,-999.0,'1111122,1111122,1111122' 
DISL,ioos:station:DISL:MBLA:1,2017-02-04T13:00:00Z,30.4367,-88.0117,14.2,10.32,33.28,-999.0,'1111122,1111122,1111122' 
DISL,ioos:station:DISL:MBLA:1,2017-02-04T13:30:00Z,30.4367,-88.0117,14.2,10.66,34.92,-999.0,'1111122,1111122,1111122' 
DISL,ioos:station:DISL:MBLA:1,2017-02-04T14:00:00Z,30.4367,-88.0117,14.2,10.1,33.24,-999.0,'1111122,1111122,1111122' 
DISL,ioos:station:DISL:MBLA:1,2017-02-04T14:30:00Z,30.4367,-88.0117,14.2,7.58,45.7,-999.0,'1111122,1111122,1111122' 
DISL,ioos:station:DISL:MBLA:1,2017-02-04T15:00:00Z,30.4367,-88.0117,14.2,5.85,33.74,-999.0,'1111122,1111122,1111122' 
DISL,ioos:station:DISL:MBLA:1,2017-02-04T15:30:00Z,30.4367,-88.0117,14.2,4.86,30.58,-999.0,'1111122,1111122,1111122' 
DISL,ioos:station:DISL:MBLA:1,2017-02-04T16:00:00Z,30.4367,-88.0117,14.2,4.46,20.49,-999.0,'1111122,1111122,1111122' 
DISL,ioos:station:DISL:MBLA:1,2017-02-04T16:30:00Z,30.4367,-88.0117,14.2,3.85,15.21,-999.0,'1111122,1111122,1111122' 
DISL,ioos:station:DISL:MBLA:1,2017-02-04T17:00:00Z,30.4367,-88.0117,14.2,2.95,3.175,-999.0,'1111122,1111122,1111122' 
DISL,ioos:station:DISL:MBLA:1,2017-02-04T17:30:00Z,30.4367,-88.0117,14.2,3.24,345.1,-999.0,'1111122,1111122,1111122' 
DISL,ioos:station:DISL:MBLA:1,2017-02-04T18:00:00Z,30.4367,-88.0117,14.2,3.33,341.0,-999.0,'1111122,1111122,1111122' 
DISL,ioos:station:DISL:MBLA:1,2017-02-04T18:30:00Z,30.4367,-88.0117,14.2,3.21,350.7,-999.0,'1111122,1111122,1111122' 
DISL,ioos:station:DISL:MBLA:1,2017-02-04T19:00:00Z,30.4367,-88.0117,14.2,3.78,342.0,-999.0,'1111122,1111122,1111122' 
DISL,ioos:station:DISL:MBLA:1,2017-02-04T19:30:00Z,30.4367,-88.0117,14.2,2.8,327.7,-999.0,'1111122,1111122,1111122' 
DISL,ioos:station:DISL:MBLA:1,2017-02-04T20:00:00Z,30.4367,-88.0117,14.2,3.17,328.3,-999.0,'1111122,1111122,1111122' 
DISL,ioos:station:DISL:MBLA:1,2017-02-04T20:30:00Z,30.4367,-88.0117,14.2,2.98,320.9,-999.0,'1111122,1111122,1111122' 
DISL,ioos:station:DISL:MBLA:1,2017-02-04T21:00:00Z,30.4367,-88.0117,14.2,2.8,304.4,-999.0,'1111122,1111122,1111122' 
DISL,ioos:station:DISL:MBLA:1,2017-02-04T21:30:00Z,30.4367,-88.0117,14.2,3.02,306.0,-999.0,'1111122,1111122,1111122' 
DISL,ioos:station:DISL:MBLA:1,2017-02-04T22:00:00Z,30.4367,-88.0117,14.2,1.85,284.6,-999.0,'1111122,1111122,1111122' 
DISL,ioos:station:DISL:MBLA:1,2017-02-04T22:30:00Z,30.4367,-88.0117,14.2,1.05,282.6,-999.0,'1111122,1111122,1111122' 
DISL,ioos:station:DISL:MBLA:1,2017-02-04T23:00:00Z,30.4367,-88.0117,14.2,0.56,256.7,-999.0,'1111122,1111122,1111122' 
DISL,ioos:station:DISL:MBLA:1,2017-02-04T23:30:00Z,30.4367,-88.0117,14.2,0.26,159.3,-999.0,'1111122,1111122,1111122' 
DISL,ioos:station:DISL:MBLA:1,2017-02-05T00:00:00Z,30.4367,-88.0117,14.2,2.18,133.8,-999.0,'1111122,1111122,1111122' 
DISL,ioos:station:DISL:MBLA:1,2017-02-05T00:30:00Z,30.4367,-88.0117,14.2,3.62,121.1,-999.0,'1111122,1111122,1111122' 
DISL,ioos:station:DISL:MBLA:1,2017-02-05T01:00:00Z,30.4367,-88.0117,14.2,4.44,130.3,-999.0,'1111122,1111122,1111122' 
DISL,ioos:station:DISL:MBLA:1,2017-02-05T01:30:00Z,30.4367,-88.0117,14.2,4.78,134.0,-999.0,'1111122,1111122,1111122' 
DISL,ioos:station:DISL:MBLA:1,2017-02-05T02:00:00Z,30.4367,-88.0117,14.2,4.75,121.0,-999.0,'1111122,1111122,1111122' 
DISL,ioos:station:DISL:MBLA:1,2017-02-05T02:30:00Z,30.4367,-88.0117,14.2,4.24,113.5,-999.0,'1111122,1111122,1111122' 
DISL,ioos:station:DISL:MBLA:1,2017-02-05T03:00:00Z,30.4367,-88.0117,14.2,3.47,111.0,-999.0,'1111122,1111122,1111122' 
DISL,ioos:station:DISL:MBLA:1,2017-02-05T03:30:00Z,30.4367,-88.0117,14.2,1.45,106.7,-999.0,'1111122,1111122,1111122' 
DISL,ioos:station:DISL:MBLA:1,2017-02-05T04:00:00Z,30.4367,-88.0117,14.2,0.58,103.1,-999.0,'1111122,1111122,1111122' 
DISL,ioos:station:DISL:MBLA:1,2017-02-05T04:30:00Z,30.4367,-88.0117,14.2,1.27,112.5,-999.0,'1111122,1111122,1111122' 